NORTHEAST SUFFOLK  -  Coastal Flood Statement Coastal Flood Statement     Rip Current Statement Rip Current Statement     Rip Current Statement Rip Current Statement        NORTHWEST SUFFOLK  -  Coastal Flood Statement Coastal Flood Statement     Rip Current Statement Rip Current Statement     Rip Current Statement Rip Current Statement        SOUTHEAST SUFFOLK  -  Coastal Flood Statement Coastal Flood Statement     Rip Current Statement Rip Current Statement     Rip Current Statement Rip Current Statement        SOUTHWEST SUFFOLK  -  Coastal Flood Statement Coastal Flood Statement     Rip Current Statement Rip Current Statement     Rip Current Statement Rip Current Statement        NORTHERN NASSAU  -  Rip Current Statement Rip Current Statement        NORTHERN QUEENS  -  Rip Current Statement Rip Current Statement        SOUTHERN NASSAU  -  Rip Current Statement Rip Current Statement        SOUTHERN QUEENS  -  Rip Current Statement Rip Current Statement      

Active alerts

Northwest Suffolk
  Details for Northwest Suffolk Coastal Flood Statement  +2 additional alerts
Southwest Suffolk
  Details for Southwest Suffolk Coastal Flood Statement  +2 additional alerts
Northeast Suffolk
  Details for Northeast Suffolk Coastal Flood Statement  +2 additional alerts
Southeast Suffolk
  Details for Southeast Suffolk Coastal Flood Statement  +2 additional alerts
Northern Queens
  Details for Northern Queens Rip Current Statement
Southern Queens
  Details for Southern Queens Rip Current Statement
Northern Nassau
  Details for Northern Nassau Rip Current Statement
Southern Nassau
  Details for Southern Nassau Rip Current Statement


WXM80 ListenWXM80 Stop

You find our weather info also at:

UK Metoffice

WeatherCloud

Weather Underground

Northeastern Weather Network

AWEKAS

Citizen Weather Observer Program (CWOP)

HAMweather, WeatherForYou, PWS Weather


Weather Underground History page Text

Daily Summary for March 9, 2018 Units:  Metric    English   Both
« Previous Day
Next Day »
Daily Weekly Monthly Yearly Custom
  High: Low: Average:
Temperature: 6 °C -0.9 °C 2.7 °C
Dew Point: -1.2 °C -5.5 °C -2.6 °C
Humidity: 88 % 55 % 69 %
Wind Speed: 17.4 km/h 0 km/h 8.2 km/h
Wind Gust: 31.5 km/h - -
Wind:- - West
Pressure: 1001.2 hPa 996.2 hPa -
Precipitation: 0 mm    
Historical Graphs
 
 
Tabular Data for March 9, 2018
Time Temperature Dew Point Pressure Wind Wind Speed Wind Gust Humidity Rainfall Rate (Hourly)
00:02 1.8 °C -2.6 °C 996.2 hPa WNW 4.3 km/h 13 km/h 73 % 0 mm
00:07 1.8 °C -2.6 °C 996.2 hPa WSW 9.2 km/h 9.2 km/h 73 % 0 mm
00:13 1.7 °C -2.4 °C 996.2 hPa NW 10.3 km/h 16.1 km/h 74 % 0 mm
00:18 1.7 °C -2.4 °C 996.2 hPa WNW 8.9 km/h 12.9 km/h 74 % 0 mm
00:23 1.7 °C -2.2 °C 996.2 hPa SW 6 km/h 13 km/h 75 % 0 mm
00:28 1.7 °C -2.1 °C 996.2 hPa WSW 8.2 km/h 14.8 km/h 76 % 0 mm
00:33 1.6 °C -2.3 °C 996.2 hPa WSW 9 km/h 16.7 km/h 75 % 0 mm
00:38 1.6 °C -2.3 °C 996.2 hPa WSW 5 km/h 13 km/h 75 % 0 mm
00:43 1.6 °C -2.4 °C 996.2 hPa West 5.5 km/h 11.1 km/h 75 % 0 mm
00:48 1.6 °C -2.2 °C 996.2 hPa WNW 3.9 km/h 9.3 km/h 76 % 0 mm
00:53 1.5 °C -2.3 °C 996.2 hPa West 5.3 km/h 9.3 km/h 76 % 0 mm
00:58 1.5 °C -2.4 °C 996.2 hPa WSW 4.7 km/h 11.1 km/h 75 % 0 mm
01:03 1.4 °C -2.5 °C 996.2 hPa West 6.1 km/h 13 km/h 75 % 0 mm
01:08 1.4 °C -2.7 °C 996.2 hPa West 4 km/h 11.1 km/h 74 % 0 mm
01:13 1.3 °C -2.8 °C 996.2 hPa SW 1.9 km/h 7.4 km/h 74 % 0 mm
01:18 1.3 °C -2.6 °C 996.2 hPa Calm   5.6 km/h 75 % 0 mm
01:20 1.3 °C -2.6 °C 996.2 hPa West 3.2 km/h 11.1 km/h 75 % 0 mm
01:25 1.3 °C -2.5 °C 996.2 hPa West 1.9 km/h 7.4 km/h 76 % 0 mm
01:30 1.3 °C -2.5 °C 996.2 hPa WSW 3.9 km/h 7.4 km/h 76 % 0 mm
01:35 1.2 °C -2.6 °C 996.2 hPa WNW 4.8 km/h 9.3 km/h 76 % 0 mm
01:40 1.2 °C -2.6 °C 996.2 hPa West 5 km/h 7.4 km/h 76 % 0 mm
01:45 1.2 °C -2.6 °C 996.2 hPa West 2.6 km/h 8 km/h 76 % 0 mm
01:50 1.2 °C -2.6 °C 996.2 hPa WSW 7.4 km/h 11.1 km/h 76 % 0 mm
01:55 1.1 °C -2.5 °C 996.2 hPa West 8.2 km/h 14.8 km/h 77 % 0 mm
02:00 1.1 °C -2.7 °C 996.2 hPa WSW 10.5 km/h 13 km/h 76 % 0 mm
02:05 1.1 °C -2.9 °C 996.2 hPa WSW 3.5 km/h 9.7 km/h 75 % 0 mm
02:10 1 °C -2.9 °C 996.2 hPa West 8.7 km/h 13 km/h 75 % 0 mm
02:15 1 °C -3.1 °C 996.2 hPa West 4.5 km/h 6.4 km/h 74 % 0 mm
02:20 0.9 °C -3.6 °C 996.2 hPa SW 8.9 km/h 14.8 km/h 72 % 0 mm
02:25 0.9 °C -3.9 °C 996.2 hPa WNW 8 km/h 14.8 km/h 70 % 0 mm
02:30 0.9 °C -4.3 °C 996.2 hPa WSW 8.9 km/h 13 km/h 68 % 0 mm
02:35 0.9 °C -4.3 °C 996.2 hPa WNW 5.1 km/h 13 km/h 68 % 0 mm
02:40 0.8 °C -4 °C 996.2 hPa West 5 km/h 16.1 km/h 70 % 0 mm
02:46 0.8 °C -3.8 °C 996.2 hPa West 4.8 km/h 14.5 km/h 71 % 0 mm
02:51 0.8 °C -3.7 °C 996.2 hPa West 3.2 km/h 12.9 km/h 72 % 0 mm
02:56 0.8 °C -3.4 °C 996.2 hPa West 8 km/h 16.1 km/h 73 % 0 mm
03:01 0.8 °C -3.5 °C 996.2 hPa WSW 10 km/h 14.8 km/h 73 % 0 mm
03:06 0.8 °C -3.7 °C 996.2 hPa West 8 km/h 19.3 km/h 72 % 0 mm
03:11 0.7 °C -3.8 °C 996.2 hPa West 11.3 km/h 19.3 km/h 72 % 0 mm
03:16 0.7 °C -3.9 °C 996.2 hPa WSW 5.1 km/h 11.1 km/h 71 % 0 mm
03:21 0.7 °C -3.8 °C 996.2 hPa WSW 9.7 km/h 19.3 km/h 72 % 0 mm
03:26 0.7 °C -3.8 °C 996.2 hPa WSW 9.7 km/h 19.3 km/h 72 % 0 mm
03:31 0.6 °C -4.1 °C 996.2 hPa WSW 12.9 km/h 22.5 km/h 71 % 0 mm
03:36 0.6 °C -4.1 °C 996.2 hPa SW 1.6 km/h 11.1 km/h 71 % 0 mm
03:41 0.5 °C -4.2 °C 996.5 hPa WSW 12.9 km/h 22.5 km/h 71 % 0 mm
03:46 0.4 °C -4.4 °C 996.2 hPa WSW 3.2 km/h 22.5 km/h 70 % 0 mm
03:51 0.4 °C -4.2 °C 996.2 hPa WSW 12.9 km/h 27.4 km/h 71 % 0 mm
03:56 0.4 °C -4.3 °C 996.5 hPa SW 8 km/h 27.4 km/h 71 % 0 mm
04:01 0.3 °C -4.4 °C 996.2 hPa SW 5.8 km/h 8 km/h 71 % 0 mm
04:06 0.2 °C -4.4 °C 996.5 hPa SW 8 km/h 13 km/h 71 % 0 mm
04:11 0.2 °C -4.5 °C 996.5 hPa SSW 6.6 km/h 14.8 km/h 71 % 0 mm
04:16 0.1 °C -4.6 °C 996.5 hPa SW 5.1 km/h 13 km/h 71 % 0 mm
04:21 0.1 °C -4.6 °C 996.5 hPa SW 1.9 km/h 5.6 km/h 71 % 0 mm
04:26 -0.1 °C -4.9 °C 996.5 hPa West 5.1 km/h 9.3 km/h 70 % 0 mm
04:31 -0.1 °C -5.1 °C 996.5 hPa WSW 7.6 km/h 16.1 km/h 69 % 0 mm
04:36 -0.2 °C -5.2 °C 996.5 hPa SSW 5.3 km/h 13 km/h 69 % 0 mm
04:41 -0.2 °C -5.2 °C 996.5 hPa WSW 7.9 km/h 14.8 km/h 69 % 0 mm
04:46 -0.2 °C -5.4 °C 996.5 hPa WSW 10 km/h 18.5 km/h 68 % 0 mm
04:51 -0.2 °C -5.4 °C 996.5 hPa WSW 7.1 km/h 16.7 km/h 68 % 0 mm
04:56 -0.3 °C -5.5 °C 996.5 hPa SW 7.1 km/h 13 km/h 68 % 0 mm
05:01 -0.3 °C -5.5 °C 996.5 hPa SW 5 km/h 11.1 km/h 68 % 0 mm
05:06 -0.3 °C -5.5 °C 996.5 hPa SW 8.4 km/h 18.5 km/h 68 % 0 mm
05:11 -0.3 °C -5.5 °C 996.8 hPa WNW 5.3 km/h 11.3 km/h 68 % 0 mm
05:16 -0.3 °C -5.3 °C 996.5 hPa SSW 9.2 km/h 18.5 km/h 69 % 0 mm
05:22 -0.3 °C -5.3 °C 996.8 hPa SW 6.3 km/h 8 km/h 69 % 0 mm
05:27 -0.3 °C -5.1 °C 996.5 hPa WNW 9 km/h 9 km/h 70 % 0 mm
05:32 -0.2 °C -4.8 °C 996.5 hPa WSW 5.3 km/h 11.3 km/h 71 % 0 mm
05:37 -0.2 °C -4.8 °C 996.5 hPa WSW 12.7 km/h 22.2 km/h 71 % 0 mm
05:42 -0.2 °C -4.7 °C 996.8 hPa West 7.4 km/h 18.5 km/h 72 % 0 mm
05:47 -0.2 °C -4.5 °C 996.5 hPa WNW 7.6 km/h 11.1 km/h 73 % 0 mm
05:52 -0.2 °C -4.5 °C 996.8 hPa South 9 km/h 17.7 km/h 73 % 0 mm
05:57 -0.3 °C -4 °C 996.8 hPa WSW 9.5 km/h 18.5 km/h 76 % 0 mm
06:02 -0.3 °C -3.8 °C 996.8 hPa WSW 9.5 km/h 18.5 km/h 77 % 0 mm
06:07 -0.3 °C -3.9 °C 996.8 hPa SSW 8.7 km/h 13 km/h 77 % 0 mm
06:12 -0.4 °C -3.8 °C 996.8 hPa West 11.3 km/h 22.5 km/h 78 % 0 mm
06:17 -0.5 °C -3.5 °C 996.8 hPa WNW 1.6 km/h 7.4 km/h 80 % 0 mm
06:22 -0.6 °C -3.4 °C 997.2 hPa West 7.7 km/h 14.5 km/h 81 % 0 mm
06:27 -0.6 °C -3.4 °C 997.2 hPa SW 10.5 km/h 24.1 km/h 81 % 0 mm
06:32 -0.7 °C -3.3 °C 997.2 hPa West 10.3 km/h 18.5 km/h 83 % 0 mm
06:37 -0.8 °C -3.2 °C 997.2 hPa SW 6.1 km/h 11.3 km/h 84 % 0 mm
06:42 -0.8 °C -3.1 °C 997.2 hPa WNW 7.9 km/h 14.8 km/h 85 % 0 mm
06:47 -0.8 °C -3.1 °C 997.2 hPa SW 5.8 km/h 7.4 km/h 85 % 0 mm
06:53 -0.8 °C -2.9 °C 997.2 hPa WSW 7.7 km/h 20.4 km/h 86 % 0 mm
06:58 -0.9 °C -2.8 °C 996.8 hPa SW 9.2 km/h 17.7 km/h 87 % 0 mm
07:03 -0.8 °C -2.7 °C 997.2 hPa West 1.6 km/h 7.4 km/h 87 % 0 mm
07:08 -0.8 °C -2.7 °C 996.8 hPa SW 6.3 km/h 11.1 km/h 87 % 0 mm
07:13 -0.8 °C -2.6 °C 997.2 hPa WSW 4.2 km/h 7.4 km/h 88 % 0 mm
07:18 -0.8 °C -2.5 °C 997.2 hPa WSW 1.9 km/h 5.6 km/h 88 % 0 mm
07:23 -0.8 °C -2.5 °C 997.2 hPa WSW 5.5 km/h 11.1 km/h 88 % 0 mm
07:28 -0.7 °C -2.4 °C 997.2 hPa SSW 4.2 km/h 7.4 km/h 88 % 0 mm
07:33 -0.7 °C -2.4 °C 997.2 hPa SW 10 km/h 18.5 km/h 88 % 0 mm
07:38 -0.7 °C -2.4 °C 997.2 hPa WSW 8.4 km/h 16.7 km/h 88 % 0 mm
07:43 -0.7 °C -2.4 °C 997.2 hPa WSW 5.1 km/h 11.1 km/h 88 % 0 mm
07:48 -0.6 °C -2.5 °C 997.2 hPa SW 5 km/h 8 km/h 87 % 0 mm
07:53 -0.5 °C -2.4 °C 997.2 hPa WSW 7.7 km/h 7.7 km/h 87 % 0 mm
07:58 -0.4 °C -2.3 °C 997.2 hPa WSW 6.9 km/h 11.1 km/h 87 % 0 mm
08:03 -0.2 °C -2.3 °C 996.8 hPa SSW 6.1 km/h 14.8 km/h 86 % 0 mm
08:08 -0.1 °C -2.3 °C 996.8 hPa WSW 9.2 km/h 14.8 km/h 85 % 0 mm
08:13 0 °C -2.4 °C 996.8 hPa WSW 8.5 km/h 16.7 km/h 84 % 0 mm
08:18 0.2 °C -2.2 °C 996.8 hPa WSW 13 km/h 16.7 km/h 84 % 0 mm
08:24 0.3 °C -2.3 °C 996.8 hPa SW 6.1 km/h 14.8 km/h 83 % 0 mm
08:29 0.4 °C -2.3 °C 996.8 hPa SW 7.9 km/h 17.7 km/h 82 % 0 mm
08:34 0.5 °C -2.2 °C 997.2 hPa WSW 14 km/h 20.4 km/h 82 % 0 mm
08:39 0.6 °C -2.3 °C 996.8 hPa SW 8.2 km/h 16.7 km/h 81 % 0 mm
08:44 0.7 °C -2.2 °C 996.8 hPa WSW 7.9 km/h 17.7 km/h 81 % 0 mm
08:49 0.9 °C -2.2 °C 996.8 hPa WSW 10.5 km/h 20.4 km/h 80 % 0 mm
08:54 1 °C -2.1 °C 996.8 hPa West 9.7 km/h 16.7 km/h 80 % 0 mm
08:59 1.1 °C -2.1 °C 997.2 hPa SW 10.5 km/h 24.1 km/h 79 % 0 mm
09:04 1.2 °C -2 °C 997.2 hPa WSW 14.8 km/h 20.4 km/h 79 % 0 mm
09:09 1.3 °C -2.1 °C 997.2 hPa WSW 7.2 km/h 14.8 km/h 78 % 0 mm
09:14 1.4 °C -1.8 °C 997.2 hPa WSW 5.5 km/h 9.3 km/h 79 % 0 mm
09:19 1.6 °C -1.8 °C 997.2 hPa WSW 8.9 km/h 18.5 km/h 78 % 0 mm
09:24 1.7 °C -1.9 °C 997.2 hPa WSW 14.3 km/h 14.8 km/h 77 % 0 mm
09:29 1.8 °C -1.9 °C 997.2 hPa West 15.9 km/h 24.1 km/h 76 % 0 mm
09:30 1.8 °C -1.9 °C 997.2 hPa WSW 12.6 km/h 24.1 km/h 76 % 0 mm
09:35 1.9 °C -1.9 °C 997.2 hPa SW 7.2 km/h 17.7 km/h 76 % 0 mm
09:40 2.1 °C -1.5 °C 997.2 hPa WNW 2.9 km/h 9.3 km/h 77 % 0 mm
09:45 2.3 °C -1.7 °C 997.2 hPa WNW 8.5 km/h 14.8 km/h 75 % 0 mm
09:50 2.3 °C -1.9 °C 997.2 hPa WNW 11.4 km/h 20.4 km/h 74 % 0 mm
09:55 2.3 °C -1.9 °C 997.2 hPa NW 10.5 km/h 18.5 km/h 74 % 0 mm
10:00 2.2 °C -2.2 °C 997.2 hPa WNW 12.2 km/h 18.5 km/h 73 % 0 mm
10:05 2.1 °C -2.2 °C 997.2 hPa WNW 6 km/h 12.9 km/h 73 % 0 mm
10:10 2.1 °C -2.2 °C 997.2 hPa WSW 6.1 km/h 16.7 km/h 73 % 0 mm
10:15 2.1 °C -2.3 °C 997.2 hPa NW 6.9 km/h 14.8 km/h 73 % 0 mm
10:20 2.2 °C -2.2 °C 997.2 hPa WNW 6.1 km/h 16.1 km/h 73 % 0 mm
10:25 2.3 °C -2 °C 997.2 hPa WSW 7.4 km/h 13 km/h 73 % 0 mm
10:30 2.6 °C -2 °C 997.2 hPa WNW 8.4 km/h 14.5 km/h 72 % 0 mm
10:35 2.7 °C -2 °C 997.2 hPa SW 8.2 km/h 24.1 km/h 71 % 0 mm
10:40 2.7 °C -2.2 °C 997.2 hPa WNW 9 km/h 16.7 km/h 70 % 0 mm
10:45 2.8 °C -2.2 °C 997.2 hPa WSW 7.9 km/h 14.8 km/h 70 % 0 mm
10:50 2.8 °C -2.3 °C 997.2 hPa WNW 7.7 km/h 16.7 km/h 69 % 0 mm
10:55 2.9 °C -2.1 °C 997.2 hPa West 3.2 km/h 11.1 km/h 70 % 0 mm
11:00 3.1 °C -1.9 °C 997.2 hPa NW 4.7 km/h 13 km/h 70 % 0 mm
11:05 3.3 °C -1.9 °C 997.2 hPa WNW 5.5 km/h 9.3 km/h 69 % 0 mm
11:10 3.4 °C -2.3 °C 997.2 hPa WNW 4.8 km/h 13 km/h 66 % 0 mm
11:16 3.7 °C -2.3 °C 997.2 hPa West 11.3 km/h 20.4 km/h 65 % 0 mm
11:21 3.8 °C -2.8 °C 997.2 hPa WNW 8 km/h 12.9 km/h 62 % 0 mm
11:26 3.9 °C -2.9 °C 997.2 hPa West 3.2 km/h 19.3 km/h 61 % 0 mm
11:31 4 °C -2.8 °C 997.2 hPa West 8 km/h 22.5 km/h 61 % 0 mm
11:36 4.1 °C -3 °C 997.2 hPa West 8 km/h 27.4 km/h 60 % 0 mm
11:41 4.2 °C -2.9 °C 997.2 hPa West 11.3 km/h 19.3 km/h 60 % 0 mm
11:46 4.4 °C -2.2 °C 997.2 hPa West 8 km/h 22.5 km/h 62 % 0 mm
11:51 4.7 °C -2.4 °C 997.2 hPa West 9.7 km/h 22.5 km/h 60 % 0 mm
11:56 4.9 °C -2.9 °C 997.2 hPa WSW 4.8 km/h 19.3 km/h 57 % 0 mm
12:01 5.1 °C -2.7 °C 997.2 hPa NW 9.2 km/h 16.7 km/h 57 % 0 mm
12:06 5.1 °C -2.7 °C 996.8 hPa WNW 10.9 km/h 16.7 km/h 57 % 0 mm
12:11 5.1 °C -2.5 °C 996.8 hPa WSW 9.3 km/h 18.5 km/h 58 % 0 mm
12:16 5.2 °C -2.2 °C 997.2 hPa SW 11.3 km/h 25.7 km/h 59 % 0 mm
12:21 5.3 °C -2.1 °C 996.8 hPa NW 6.3 km/h 14.5 km/h 59 % 0 mm
12:26 5.4 °C -2 °C 996.8 hPa SSW 8.7 km/h 22.5 km/h 59 % 0 mm
12:31 5.6 °C -1.8 °C 997.2 hPa WSW 6.3 km/h 20.4 km/h 59 % 0 mm
12:36 5.7 °C -1.9 °C 997.2 hPa SW 12.2 km/h 20.4 km/h 58 % 0 mm
12:41 5.8 °C -1.8 °C 996.8 hPa WSW 14.3 km/h 22.5 km/h 58 % 0 mm
12:46 5.9 °C -1.9 °C 996.8 hPa SW 11.1 km/h 29.6 km/h 57 % 0 mm
12:51 5.9 °C -1.7 °C 996.8 hPa WNW 13 km/h 20.4 km/h 58 % 0 mm
12:56 6 °C -1.7 °C 996.8 hPa West 11.1 km/h 25.9 km/h 58 % 0 mm
13:01 6 °C -1.7 °C 996.8 hPa WNW 15.6 km/h 27.8 km/h 58 % 0 mm
13:06 5.9 °C -1.4 °C 996.8 hPa SW 9.7 km/h 27.4 km/h 59 % 0 mm
13:11 5.8 °C -1.4 °C 996.8 hPa West 7.2 km/h 13 km/h 60 % 0 mm
13:16 5.7 °C -1.4 °C 996.8 hPa NW 4 km/h 16.7 km/h 60 % 0 mm
13:21 5.7 °C -1.7 °C 996.8 hPa West 10.8 km/h 27.8 km/h 59 % 0 mm
13:26 5.6 °C -1.8 °C 996.8 hPa SW 9.7 km/h 22.5 km/h 59 % 0 mm
13:31 5.4 °C -1.8 °C 996.8 hPa NW 7.6 km/h 18.5 km/h 60 % 0 mm
13:36 5.3 °C -1.7 °C 996.8 hPa SSW 9.7 km/h 18.5 km/h 61 % 0 mm
13:41 5.2 °C -1.7 °C 996.8 hPa West 11.6 km/h 16.7 km/h 61 % 0 mm
13:46 5.2 °C -1.5 °C 996.8 hPa WSW 13.7 km/h 31.5 km/h 62 % 0 mm
13:51 5.3 °C -1.4 °C 996.8 hPa SSW 9.3 km/h 17.7 km/h 62 % 0 mm
13:57 5.6 °C -1.2 °C 996.8 hPa West 11.7 km/h 16.7 km/h 62 % 0 mm
14:02 5.8 °C -1.2 °C 996.8 hPa WNW 7.4 km/h 11.1 km/h 61 % 0 mm
14:07 6 °C -1.7 °C 996.8 hPa WNW 13.8 km/h 20.4 km/h 58 % 0 mm
14:12 6 °C -1.4 °C 996.8 hPa West 7.2 km/h 20.4 km/h 59 % 0 mm
14:17 5.9 °C -1.8 °C 996.8 hPa West 13.4 km/h 25.9 km/h 58 % 0 mm
14:22 5.7 °C -1.9 °C 996.8 hPa WNW 12.6 km/h 20.4 km/h 58 % 0 mm
14:27 5.6 °C -1.8 °C 996.8 hPa WNW 10.3 km/h 18.5 km/h 59 % 0 mm
14:32 5.7 °C -1.7 °C 996.8 hPa NW 8.7 km/h 18.5 km/h 59 % 0 mm
14:37 5.8 °C -1.6 °C 996.8 hPa WSW 11.6 km/h 20.4 km/h 59 % 0 mm
14:42 5.8 °C -2.1 °C 996.8 hPa WNW 10.3 km/h 22.2 km/h 57 % 0 mm
14:47 5.8 °C -2.1 °C 997.2 hPa West 13.7 km/h 27.8 km/h 57 % 0 mm
14:52 5.6 °C -2.3 °C 997.2 hPa WSW 17.4 km/h 29 km/h 57 % 0 mm
14:57 5.4 °C -1.9 °C 997.2 hPa WSW 11.1 km/h 20.4 km/h 59 % 0 mm
15:02 5.4 °C -1.8 °C 997.2 hPa WSW 6.9 km/h 12.9 km/h 60 % 0 mm
15:07 5.4 °C -2.2 °C 997.2 hPa NW 10.6 km/h 25.9 km/h 58 % 0 mm
15:12 5.4 °C -1.9 °C 997.5 hPa West 15.3 km/h 20.4 km/h 59 % 0 mm
15:17 5.4 °C -1.9 °C 997.5 hPa WSW 6.3 km/h 13 km/h 59 % 0 mm
15:22 5.6 °C -1.8 °C 997.5 hPa West 11.7 km/h 22.5 km/h 59 % 0 mm
15:27 5.7 °C -1.9 °C 997.5 hPa West 9 km/h 18.5 km/h 58 % 0 mm
15:32 5.6 °C -2.3 °C 997.5 hPa WSW 12.6 km/h 16.7 km/h 57 % 0 mm
15:37 5.6 °C -2.1 °C 997.5 hPa West 6 km/h 13 km/h 58 % 0 mm
15:42 5.5 °C -1.9 °C 997.5 hPa West 6.9 km/h 9.3 km/h 59 % 0 mm
15:48 5.5 °C -2.1 °C 997.5 hPa WSW 7.6 km/h 18.5 km/h 58 % 0 mm
15:53 5.5 °C -2.3 °C 997.5 hPa WNW 12.4 km/h 18.5 km/h 57 % 0 mm
15:58 5.6 °C -2.1 °C 997.5 hPa West 12.7 km/h 20.9 km/h 58 % 0 mm
16:03 5.6 °C -2.1 °C 997.5 hPa West 10.1 km/h 16.7 km/h 58 % 0 mm
16:08 5.6 °C -2.6 °C 997.5 hPa WNW 11.7 km/h 16.7 km/h 56 % 0 mm
16:13 5.5 °C -2.6 °C 997.9 hPa West 8.4 km/h 20.4 km/h 56 % 0 mm
16:18 5.5 °C -2.8 °C 997.9 hPa SW 11.6 km/h 25.7 km/h 55 % 0 mm
16:23 5.4 °C -2.7 °C 997.9 hPa WSW 7.9 km/h 14.5 km/h 56 % 0 mm
16:28 5.5 °C -2.3 °C 997.9 hPa SW 3.1 km/h 9.3 km/h 57 % 0 mm
16:33 5.4 °C -2.2 °C 997.9 hPa WSW 14.5 km/h 20.4 km/h 58 % 0 mm
16:38 5.4 °C -2.2 °C 997.9 hPa WSW 11.3 km/h 25.9 km/h 58 % 0 mm
16:43 5.4 °C -2.2 °C 998.2 hPa West 6.8 km/h 12.9 km/h 58 % 0 mm
16:48 5.4 °C -2 °C 997.9 hPa WNW 10.3 km/h 16.7 km/h 59 % 0 mm
16:53 5.4 °C -2 °C 997.9 hPa SW 3.9 km/h 11.3 km/h 59 % 0 mm
16:59 5.4 °C -1.9 °C 998.2 hPa SW 14.2 km/h 22.2 km/h 59 % 0 mm
17:04 5.3 °C -2.1 °C 998.2 hPa West 9.2 km/h 13 km/h 59 % 0 mm
17:09 5.3 °C -2.6 °C 998.2 hPa West 9.3 km/h 20.4 km/h 57 % 0 mm
17:14 5.2 °C -2.4 °C 998.2 hPa WSW 9.2 km/h 20.4 km/h 58 % 0 mm
17:19 5.2 °C -2.4 °C 998.2 hPa West 6.1 km/h 14.8 km/h 58 % 0 mm
17:24 5.2 °C -2.4 °C 998.2 hPa West 8.2 km/h 18.5 km/h 58 % 0 mm
17:29 5.2 °C -2.2 °C 998.5 hPa West 7.4 km/h 16.7 km/h 59 % 0 mm
17:34 5.2 °C -2.2 °C 998.5 hPa WSW 10.6 km/h 18.5 km/h 59 % 0 mm
17:39 5.2 °C -2.2 °C 998.5 hPa West 10.9 km/h 16.7 km/h 59 % 0 mm
17:44 5.1 °C -2.3 °C 998.5 hPa WSW 13.7 km/h 18.5 km/h 59 % 0 mm
17:49 5.1 °C -2.3 °C 998.5 hPa WSW 10.6 km/h 17.7 km/h 59 % 0 mm
17:54 5 °C -2.1 °C 998.9 hPa WSW 9.5 km/h 16.7 km/h 60 % 0 mm
17:59 4.9 °C -2.2 °C 998.9 hPa SSW 11.9 km/h 18.5 km/h 60 % 0 mm
18:04 4.8 °C -2.1 °C 998.9 hPa West 10.6 km/h 22.2 km/h 61 % 0 mm
18:09 4.8 °C -1.9 °C 998.9 hPa West 6.8 km/h 25.9 km/h 62 % 0 mm
18:14 4.7 °C -2.2 °C 998.9 hPa NW 11.1 km/h 27.8 km/h 61 % 0 mm
18:19 4.7 °C -2 °C 998.9 hPa West 10.8 km/h 18.5 km/h 62 % 0 mm
18:24 4.6 °C -1.9 °C 999.2 hPa SW 13.2 km/h 16.7 km/h 63 % 0 mm
18:30 4.5 °C -1.9 °C 999.2 hPa SW 8.9 km/h 13 km/h 63 % 0 mm
18:35 4.5 °C -1.9 °C 999.2 hPa WNW 13.7 km/h 14.8 km/h 63 % 0 mm
18:40 4.4 °C -2 °C 999.2 hPa WNW 12.7 km/h 19.3 km/h 63 % 0 mm
18:45 4.4 °C -1.8 °C 999.5 hPa West 8.4 km/h 22.2 km/h 64 % 0 mm
18:50 4.4 °C -1.8 °C 999.5 hPa West 6.1 km/h 14.8 km/h 64 % 0 mm
18:55 4.4 °C -1.8 °C 999.5 hPa West 10.5 km/h 18.5 km/h 64 % 0 mm
19:00 4.4 °C -1.6 °C 999.5 hPa WNW 7.1 km/h 16.7 km/h 65 % 0 mm
19:05 4.3 °C -1.4 °C 999.5 hPa West 7.7 km/h 14.8 km/h 66 % 0 mm
19:10 4.3 °C -1.5 °C 999.9 hPa West 12.4 km/h 22.2 km/h 66 % 0 mm
19:15 4.2 °C -1.6 °C 999.9 hPa WNW 9.7 km/h 18.5 km/h 66 % 0 mm
19:20 4.2 °C -1.6 °C 999.9 hPa WNW 12.2 km/h 18.5 km/h 66 % 0 mm
19:25 4.1 °C -1.7 °C 999.9 hPa West 10.8 km/h 16.7 km/h 66 % 0 mm
19:30 4.1 °C -1.5 °C 999.9 hPa NW 5 km/h 16.7 km/h 67 % 0 mm
19:35 4.1 °C -1.5 °C 1000.2 hPa WSW 4 km/h 11.1 km/h 67 % 0 mm
19:40 4 °C -1.4 °C 1000.2 hPa NNW 5.6 km/h 9.3 km/h 68 % 0 mm
19:45 3.9 °C -1.4 °C 1000.2 hPa WNW 2.1 km/h 11.1 km/h 68 % 0 mm
19:51 3.9 °C -1.5 °C 1000.6 hPa WNW 6.8 km/h 14.8 km/h 68 % 0 mm
19:56 3.8 °C -1.5 °C 1000.6 hPa West 8 km/h 14.5 km/h 68 % 0 mm
20:01 3.8 °C -1.6 °C 1000.6 hPa NW 4.5 km/h 12.9 km/h 68 % 0 mm
20:06 3.8 °C -1.6 °C 1000.6 hPa WNW 8 km/h 19.3 km/h 68 % 0 mm
20:11 3.8 °C -1.4 °C 1000.6 hPa West 4.8 km/h 16.1 km/h 69 % 0 mm
20:16 3.7 °C -1.4 °C 1000.6 hPa West 4.8 km/h 14.5 km/h 69 % 0 mm
20:21 3.7 °C -1.7 °C 1000.6 hPa WSW 8 km/h 16.1 km/h 68 % 0 mm
20:26 3.7 °C -1.7 °C 1000.6 hPa WSW 3.2 km/h 16.1 km/h 68 % 0 mm
20:31 3.7 °C -1.5 °C 1000.6 hPa WSW 3.2 km/h 11.3 km/h 69 % 0 mm
20:36 3.6 °C -1.6 °C 1000.6 hPa West 8 km/h 16.1 km/h 69 % 0 mm
20:41 3.6 °C -2 °C 1000.9 hPa WSW 9.7 km/h 25.7 km/h 67 % 0 mm
20:46 3.5 °C -2.2 °C 1000.9 hPa WSW 8 km/h 19.3 km/h 66 % 0 mm
20:51 3.5 °C -2.3 °C 1000.6 hPa West 9.7 km/h 14.5 km/h 66 % 0 mm
20:56 3.4 °C -2.3 °C 1000.9 hPa WSW 12.9 km/h 22.5 km/h 66 % 0 mm
21:01 3.4 °C -2.4 °C 1000.9 hPa WSW 4.5 km/h 20.9 km/h 66 % 0 mm
21:06 3.4 °C -2.4 °C 1000.9 hPa West 3.2 km/h 22.5 km/h 66 % 0 mm
21:11 3.3 °C -2.4 °C 1000.9 hPa WSW 8 km/h 19.3 km/h 66 % 0 mm
21:15 3.3 °C -2.5 °C 1000.9 hPa WSW 1.6 km/h 19.3 km/h 66 % 0 mm
21:21 3.2 °C -2.5 °C 1000.9 hPa WSW 1.6 km/h 19.3 km/h 66 % 0 mm
21:26 3.2 °C -2.6 °C 1000.9 hPa WSW 4.8 km/h 19.3 km/h 66 % 0 mm
21:31 3.1 °C -2.6 °C 1000.9 hPa SSW 2.7 km/h 3.2 km/h 66 % 0 mm
21:36 3 °C -2.7 °C 1000.9 hPa SW 4.7 km/h 16.7 km/h 66 % 0 mm
21:41 2.9 °C -2.8 °C 1000.9 hPa WSW 5.8 km/h 13 km/h 66 % 0 mm
21:46 2.9 °C -2.8 °C 1000.9 hPa WSW 8.9 km/h 16.7 km/h 66 % 0 mm
21:51 2.8 °C -2.9 °C 1000.9 hPa West 8.7 km/h 18.5 km/h 66 % 0 mm
21:56 2.8 °C -2.9 °C 1000.9 hPa WSW 10.6 km/h 18.5 km/h 66 % 0 mm
22:01 2.7 °C -3 °C 1000.9 hPa WSW 9.3 km/h 16.7 km/h 66 % 0 mm
22:06 2.7 °C -2.8 °C 1000.9 hPa West 8.4 km/h 14.8 km/h 67 % 0 mm
22:11 2.7 °C -2.8 °C 1000.9 hPa WNW 12.1 km/h 22.2 km/h 67 % 0 mm
22:16 2.7 °C -3.1 °C 1000.9 hPa SW 12.2 km/h 14.8 km/h 66 % 0 mm
22:21 2.7 °C -2.8 °C 1000.9 hPa WSW 11.9 km/h 20.4 km/h 67 % 0 mm
22:26 2.7 °C -2.8 °C 1000.9 hPa WSW 11.3 km/h 16.7 km/h 67 % 0 mm
22:31 2.6 °C -2.9 °C 1001.2 hPa WNW 8.2 km/h 18.5 km/h 67 % 0 mm
22:36 2.6 °C -2.9 °C 1001.2 hPa West 6.6 km/h 16.7 km/h 67 % 0 mm
22:41 2.6 °C -2.8 °C 1001.2 hPa SW 12.4 km/h 18.5 km/h 68 % 0 mm
22:46 2.5 °C -3 °C 1001.2 hPa WSW 5.5 km/h 11.1 km/h 67 % 0 mm
22:51 2.4 °C -3.1 °C 1001.2 hPa SW 6.6 km/h 12.9 km/h 67 % 0 mm
22:56 2.4 °C -3.1 °C 1001.2 hPa West 6.1 km/h 11.3 km/h 67 % 0 mm
23:01 2.3 °C -3.2 °C 1000.9 hPa WSW 6 km/h 12.9 km/h 67 % 0 mm
23:06 2.3 °C -3 °C 1001.2 hPa WSW 13.4 km/h 18.5 km/h 68 % 0 mm
23:11 2.3 °C -3 °C 1001.2 hPa WSW 7.1 km/h 16.7 km/h 68 % 0 mm
23:17 2.3 °C -3.2 °C 1001.2 hPa WSW 3.5 km/h 16.1 km/h 67 % 0 mm
23:22 2.2 °C -3.1 °C 1000.9 hPa WSW 14 km/h 22.2 km/h 68 % 0 mm
23:27 2.2 °C -3.1 °C 1001.2 hPa WSW 5.5 km/h 24.1 km/h 68 % 0 mm
23:32 2.2 °C -3.1 °C 1001.2 hPa SW 11.3 km/h 18.5 km/h 68 % 0 mm
23:37 2.1 °C -3 °C 1001.2 hPa West 4 km/h 13 km/h 69 % 0 mm
23:42 2.1 °C -3 °C 1001.2 hPa West 7.4 km/h 13 km/h 69 % 0 mm
23:47 2.1 °C -3.1 °C 1001.2 hPa West 14.6 km/h 24.1 km/h 69 % 0 mm
23:52 2.1 °C -3.1 °C 1000.9 hPa West 10 km/h 18.5 km/h 69 % 0 mm
23:57 2 °C -2.9 °C 1001.2 hPa WSW 11.9 km/h 20.4 km/h 70 % 0 mm
Crab Meadow Weather
Compliments of Weather Underground - 3 mb

Script developed by  Jim McMurry - jmcmurry@mwt.net Adapted for the template by  Wim van der Kuil - Leuven-Template.eu

Weather Terms: Severe Thunderstorm Watch - Conditions are favorable for the development of severe thunderstorms in and close to the watch area. These watches are issued for large areas by the Storm Prediction Center in Norman, Oklahoma, and are usually valid for four to six hours.